Location: Unspecified
(0.0000°N, 0.0000°E)
Time: 20:21:52
(UTC+00:00)

Vanguard 1 - Pass Details

Date: 21 June 2025
Orbit: 649 x 3822 km, 34.2° (Epoch: 12 July)

Event Time Altitude Azimuth Distance (km) Brightness Sun altitude
Rises 18:16:34 0° 295° (WNW) 7,904 18.2 -3.3°
Reaches altitude 10° 18:22:35 10° 290° (WNW) 6,701 16.3 -4.7°
Maximum altitude 18:42:04 49° 222° (SW) 3,197 12.8 -9.2°
Drops below altitude 10° 18:53:38 10° 149° (SSE) 4,129 12.8 -11.8°
Enters shadow 18:54:36 - 146° (SE) 4,342 12.9 -12.1°
